Wind_Speed
19 19 20 20 20 20 20 20 20 20 19 19 19 19 19 19 19 19 18 18 18 18 17 16 15 14 14 14 14 14 15 15 16 16 17 19 20 21 22 21 22 22 21 20 21 21 21 21 21 21 21 20 18 17 17 16 15 14 13 12 10 10 8 4 3 4 6 6 6 6 3 5 7 7 8 7 8 8 7 6 5 4 3 3 2 2 3 3
18 18 19 19 19 20 20 19 19 19 19 19 19 19 20 19 19 19 19 19 19 19 19 18 17 16 16 15 15 15 15 15 15 16 18 20 19 20 22 22 23 23 22 21 22 22 22 22 21 21 21 20 19 19 18 18 17 16 15 13 12 12 11 7 6 4 7 4 4 5 5 3 4 6 6 6 7 7 7 7 6 5 3 2 1 2 3 3
17 17 17 18 18 19 19 19 19 19 19 19 19 19 20 19 19 19 19 19 19 20 20 19 19 18 18 17 17 16 15 15 13 15 19 20 19 20 21 22 24 24 24 23 21 21 21 21 21 21 21 20 20 19 19 19 19 18 17 16 13 13 12 10 7 6 8 4 2 4 7 4 5 7 6 6 7 8 9 8 6 6 4 2 1 2 3 3
16 16 16 16 17 17 18 18 18 18 18 18 18 19 19 19 19 19 20 20 19 20 20 20 20 19 19 19 19 18 18 15 12 16 19 20 20 21 21 22 23 24 25 24 22 21 21 21 21 21 21 21 20 20 19 20 20 19 19 17 15 14 12 10 6 5 7 5 4 4 7 7 6 7 5 7 9 9 9 7 6 6 4 3 2 2 3 3
18 17 17 16 16 16 17 17 17 17 17 17 18 18 18 19 19 19 20 19 20 20 20 20 20 20 20 20 20 20 20 16 15 18 18 18 21 21 21 22 22 23 24 24 24 23 23 22 22 22 21 21 21 20 19 20 22 21 20 19 17 17 14 12 9 9 8 7 7 4 5 8 7 7 6 8 9 8 7 6 6 5 4 3 3 3 3 3
21 20 19 19 18 18 17 17 17 17 17 16 17 17 17 17 18 19 19 19 20 19 20 20 20 20 20 20 21 21 21 17 19 20 17 18 21 20 21 22 22 23 23 24 25 25 24 24 23 22 22 22 22 21 21 22 23 22 22 20 19 19 16 14 10 10 11 9 10 7 4 6 7 7 7 7 7 7 6 6 7 4 2 3 4 4 4 4
23 23 22 21 21 20 20 19 19 18 18 17 17 17 17 17 17 17 18 19 19 19 19 19 20 20 20 21 20 21 21 18 21 22 19 20 21 20 20 22 23 23 23 24 25 26 26 25 25 24 23 23 22 22 22 23 23 23 23 22 22 21 18 18 13 10 13 12 11 8 6 8 8 8 7 6 7 7 6 7 7 4 3 4 5 5 5 5
25 25 24 24 23 23 22 22 21 21 20 20 19 19 18 18 17 17 18 18 19 19 19 19 19 19 20 20 20 22 20 18 24 23 21 22 22 21 20 21 23 23 24 24 24 26 26 26 26 26 25 24 24 23 24 24 24 22 23 24 25 23 20 20 18 14 15 14 12 9 9 11 10 9 8 8 9 8 7 6 7 3 3 5 6 6 6 6
27 27 27 26 26 25 25 24 24 23 23 23 22 22 21 20 20 19 19 19 18 19 19 19 19 19 19 19 20 20 18 20 24 22 22 23 23 23 21 21 22 23 24 24 24 25 25 27 27 27 27 27 26 25 26 25 23 23 25 27 26 24 22 21 19 17 16 15 12 11 13 14 12 10 9 9 9 7 5 5 4 1 3 5 6 6 6 6
29 29 28 28 28 27 27 27 26 26 25 25 25 25 24 23 23 22 21 21 20 20 20 20 19 19 19 19 20 18 18 22 22 21 23 24 23 24 23 22 22 23 23 24 25 25 25 27 28 29 29 28 28 27 26 24 24 26 28 28 26 24 23 22 19 18 17 16 14 14 16 17 14 10 10 10 10 9 7 7 4 3 5 6 6 7 7 6
31 31 30 30 29 29 29 29 28 28 28 27 27 27 27 27 26 25 24 24 23 22 22 22 21 21 20 20 19 17 19 21 19 20 23 22 24 25 24 24 23 23 23 23 25 25 27 27 28 29 29 29 29 27 26 24 25 27 26 26 26 23 22 22 21 20 19 19 18 17 18 18 17 12 10 10 11 10 9 9 7 6 6 6 7 7 7 7
32 32 32 31 31 30 30 30 30 29 29 29 29 29 29 29 29 28 27 27 26 25 25 24 24 23 22 22 21 19 20 19 18 20 21 21 23 24 25 25 25 25 24 24 24 26 28 27 27 27 28 30 29 28 28 26 26 26 25 24 24 22 21 21 22 22 22 22 21 20 20 19 19 17 13 11 12 11 10 10 9 8 7 6 7 7 7 7
33 33 33 33 33 32 32 32 31 31 30 30 30 31 31 31 31 30 30 29 28 28 27 27 26 26 25 24 23 22 21 20 19 20 20 21 22 23 25 26 26 26 25 25 25 26 27 27 27 26 28 30 28 30 30 27 26 26 24 23 23 23 21 20 22 23 23 24 24 23 23 21 21 22 17 14 14 13 12 11 10 8 7 7 7 8 9 9
33 33 34 34 34 33 33 33 33 32 31 31 31 31 31 32 32 32 32 31 31 30 30 29 29 28 27 27 26 25 23 22 22 21 20 21 21 22 23 24 26 27 27 27 26 26 25 26 27 27 28 27 27 30 29 26 26 25 25 25 23 23 21 19 21 23 23 25 26 26 26 24 23 23 19 16 14 13 14 12 10 9 8 8 8 9 10 10
33 33 34 34 34 34 34 34 34 34 33 32 32 31 31 32 32 33 33 33 32 32 31 31 30 30 30 29 28 27 26 25 24 23 22 22 22 22 23 24 25 26 28 28 28 27 26 26 26 27 28 27 28 28 27 27 26 26 28 26 24 23 20 18 20 21 22 24 27 27 26 26 24 23 20 17 16 14 14 14 12 10 9 9 9 10 11 11
33 33 33 34 34 34 34 34 34 34 34 33 33 32 31 31 31 32 33 33 33 33 33 33 32 32 31 30 30 30 29 28 27 26 25 24 24 23 23 23 23 24 26 27 28 29 28 27 26 26 28 28 28 27 27 28 26 27 28 26 25 24 21 19 20 21 22 23 26 27 25 26 26 24 22 18 17 16 14 15 14 11 11 10 10 11 12 11
34 33 33 33 33 33 33 34 34 34 34 34 33 33 32 32 31 31 32 32 33 33 33 34 33 33 33 33 32 32 31 30 29 29 28 27 26 25 24 24 24 24 25 26 27 28 29 28 27 27 27 28 27 27 28 26 23 25 26 27 26 25 23 21 19 21 24 23 25 27 24 26 27 25 23 20 18 16 14 15 14 13 12 12 12 12 13 11
35 34 34 34 33 33 33 34 34 34 34 34 34 34 34 33 33 32 32 32 32 33 33 34 34 34 35 34 33 33 32 32 31 30 30 29 29 27 27 27 26 25 25 25 25 26 28 29 29 29 28 27 26 26 25 21 21 23 26 28 27 27 25 23 18 15 22 24 23 26 26 26 27 26 25 23 21 18 15 15 15 15 15 14 14 14 14 13
38 36 35 34 34 34 34 34 34 35 35 34 34 34 35 35 35 34 34 33 33 33 33 34 34 35 36 34 33 34 33 33 32 31 30 30 30 29 29 29 28 28 28 26 25 26 27 28 30 30 28 25 23 23 22 21 24 25 23 23 25 28 26 25 19 11 17 24 22 26 28 26 27 28 27 23 23 22 17 17 17 16 17 16 16 16 15 14
40 39 38 36 35 35 35 35 35 35 35 35 35 35 35 36 36 35 35 35 35 35 35 34 34 35 36 34 34 35 34 34 34 32 31 30 30 30 30 30 30 30 30 29 27 27 27 28 29 27 26 25 23 23 23 24 28 29 27 25 25 28 26 26 23 17 19 22 22 24 25 27 29 27 27 25 25 24 19 18 18 16 17 18 18 18 18 16
39 39 39 37 37 37 37 37 36 36 36 36 35 35 36 36 36 36 35 36 37 37 36 36 36 36 36 35 35 36 35 35 35 34 33 32 31 31 30 30 30 30 30 30 30 30 30 29 26 24 24 26 27 27 26 26 29 31 32 32 29 28 26 24 24 22 22 19 21 26 24 25 30 27 25 26 26 24 21 20 19 16 19 20 20 20 20 18
38 37 37 36 36 36 37 36 37 36 36 36 36 37 37 37 37 36 36 36 36 37 37 37 37 37 36 36 36 36 37 37 37 36 35 34 34 34 32 31 31 31 30 31 32 33 32 29 25 23 24 26 28 29 30 29 29 31 32 33 30 28 26 26 25 20 20 24 24 24 25 23 26 29 29 27 26 24 22 23 22 19 18 17 17 19 22 21
36 36 35 34 33 34 35 35 35 35 35 35 36 36 37 37 37 37 37 37 36 36 37 37 37 37 36 37 37 37 38 38 38 37 36 36 37 37 35 34 34 33 32 31 32 33 32 29 26 26 26 27 29 31 32 32 31 32 32 32 30 27 26 28 26 19 22 31 27 19 23 27 27 30 31 28 27 25 22 22 22 19 18 17 16 19 24 24
32 32 32 31 30 30 31 31 32 32 32 33 33 34 36 36 37 37 37 37 37 36 37 37 37 37 37 36 37 38 38 39 40 38 38 38 39 38 37 37 37 36 35 34 33 33 31 29 29 30 30 29 30 30 32 33 33 33 33 32 30 29 29 28 24 20 24 34 31 24 22 29 33 31 30 27 25 24 23 22 22 20 19 19 18 20 23 22
28 28 28 27 27 27 28 28 28 29 29 30 30 31 32 33 34 35 35 36 37 36 35 37 37 36 37 36 36 37 37 39 40 39 39 39 39 38 37 38 38 38 38 38 37 36 33 32 31 32 32 32 31 31 32 33 34 35 34 32 30 29 31 32 28 26 23 25 30 30 27 27 28 24 24 27 25 25 25 22 22 21 19 20 21 22 21 17
27 26 25 24 24 25 25 26 26 26 27 27 27 28 28 30 30 31 32 32 35 36 33 35 36 35 36 36 36 36 37 39 40 39 39 39 39 39 38 38 38 38 39 40 41 40 37 35 34 33 34 33 34 34 34 33 34 35 34 33 32 30 32 34 35 35 30 25 27 28 31 36 34 26 24 27 28 29 29 25 23 22 20 20 21 22 19 15
26 25 25 23 23 23 23 24 24 25 25 24 25 26 25 26 26 27 28 25 29 34 31 30 33 32 33 35 35 36 37 37 38 38 39 39 39 39 39 38 38 38 39 40 42 42 41 39 37 36 35 35 35 35 35 35 35 36 34 34 34 33 34 35 37 40 38 37 34 27 26 36 42 39 34 32 34 35 32 30 27 24 22 21 21 21 18 16
25 25 24 23 22 21 21 21 22 23 24 23 24 24 23 24 23 23 23 20 24 31 30 27 29 29 30 31 32 34 35 35 36 37 37 38 39 39 39 40 39 40 41 41 41 41 42 42 41 40 38 36 35 35 37 37 37 36 34 35 37 37 37 37 39 40 39 42 44 37 32 34 39 39 35 31 34 37 36 34 31 25 22 22 22 21 18 18
24 24 23 23 22 21 19 19 19 20 22 22 21 21 21 21 21 21 21 20 22 27 27 26 26 27 27 27 28 30 33 35 36 36 34 36 38 38 39 40 40 41 43 43 42 41 43 44 43 43 42 39 37 37 39 39 39 39 36 36 39 40 40 41 42 42 41 44 47 44 42 41 39 34 31 30 31 33 35 35 33 28 25 24 23 21 19 18
23 21 21 20 20 19 18 17 17 18 19 19 17 18 18 17 19 18 17 18 21 23 25 26 25 24 25 25 26 28 29 32 33 33 32 34 35 35 38 39 38 38 40 42 42 42 43 45 46 45 44 44 42 41 41 41 42 41 39 38 39 40 43 47 45 41 42 46 48 45 44 45 43 36 30 28 28 30 30 31 34 30 26 23 22 20 19 19
21 19 18 17 17 18 17 15 15 16 15 14 14 14 13 14 14 13 13 16 18 20 23 26 24 22 22 23 25 27 26 27 29 29 29 30 32 32 33 34 35 37 40 42 41 40 40 42 44 45 46 46 46 45 43 43 44 41 39 40 41 42 44 47 46 43 44 46 45 43 43 45 47 44 36 27 26 29 27 26 32 33 28 25 23 21 19 19
18 16 15 15 15 16 16 14 13 14 13 12 11 11 11 11 10 10 12 13 15 21 25 23 19 20 21 21 25 27 25 25 27 27 28 29 28 29 30 32 36 38 37 36 36 36 38 41 42 44 46 46 47 48 47 45 44 42 42 43 44 44 45 47 46 46 47 46 43 42 43 46 48 46 41 32 27 30 31 30 29 32 34 30 25 24 24 22
16 14 14 14 15 15 16 14 12 12 12 11 10 10 10 9 10 10 8 10 18 24 23 18 17 20 20 20 25 25 22 24 26 25 27 27 25 26 30 33 34 32 31 32 34 35 34 37 41 42 43 46 47 46 48 49 47 44 44 47 47 46 46 46 47 48 47 45 41 40 43 48 49 47 44 38 31 31 37 35 28 28 33 31 26 25 24 24
13 12 13 14 16 16 15 13 11 10 11 11 10 10 10 10 12 13 11 16 22 21 19 17 18 20 19 21 24 21 20 23 24 23 24 25 24 24 29 32 29 28 29 30 33 33 25 19 27 32 32 40 47 46 45 47 48 47 46 48 50 49 47 44 43 44 45 45 42 41 46 48 48 47 45 43 38 36 38 33 26 30 34 34 32 27 23 24
12 13 14 15 16 15 13 11 10 10 10 11 10 10 11 12 15 17 19 22 20 15 16 17 18 20 20 22 23 20 21 24 23 22 23 24 21 20 27 32 30 30 31 29 29 33 29 18 13 18 18 26 39 44 45 46 47 48 46 47 51 49 47 47 43 37 33 35 38 40 45 47 47 47 45 44 42 41 40 33 28 31 34 36 39 33 26 27
15 16 16 15 14 13 11 10 9 9 9 10 10 11 13 15 18 19 20 20 17 14 14 15 17 19 18 21 25 25 24 25 23 21 22 24 22 24 31 32 29 30 30 29 29 32 34 28 20 20 21 21 23 28 38 46 46 42 40 45 51 49 47 47 48 43 36 34 36 35 35 36 39 42 44 46 45 42 42 39 34 32 31 35 43 40 31 28
16 16 15 14 12 11 10 9 8 8 8 9 10 11 13 14 16 16 16 18 18 15 14 13 16 19 14 11 18 24 24 24 26 22 20 25 27 29 34 31 29 30 28 28 30 32 35 33 30 30 23 17 20 23 31 41 45 42 35 33 38 44 47 48 47 45 43 44 41 35 30 26 26 30 32 35 41 43 44 43 36 31 28 29 35 38 33 29
15 14 12 11 9 8 8 7 7 7 7 7 8 9 11 12 13 12 14 17 16 13 14 15 17 20 15 10 11 23 21 17 22 24 22 27 31 32 35 34 33 33 30 30 31 34 36 34 34 36 26 18 22 25 26 33 42 49 43 30 25 31 38 43 48 48 47 45 40 36 33 27 22 25 26 24 28 34 39 42 40 37 37 34 29 33 35 34
15 13 10 8 8 7 6 6 6 5 6 7 7 9 11 12 11 10 12 13 12 12 14 16 17 18 15 14 17 25 22 14 18 22 20 25 32 34 35 36 35 35 34 33 33 35 37 36 36 37 36 33 29 25 26 28 31 39 46 42 34 31 28 28 37 46 49 46 38 34 36 33 27 23 20 22 26 27 27 34 41 41 44 41 31 32 38 38
16 13 9 9 8 6 5 3 2 2 4 5 4 6 9 9 9 9 9 9 10 11 11 11 14 16 14 14 17 22 23 20 20 22 23 25 31 36 35 34 35 37 35 35 36 37 39 41 40 37 38 42 39 35 34 32 26 24 34 44 42 38 35 30 28 32 41 48 43 34 30 32 29 22 20 23 26 28 27 27 36 40 43 39 31 29 36 38
15 13 11 10 8 6 4 3 3 0 3 4 4 5 5 6 7 7 7 8 9 10 9 9 13 16 14 14 17 19 22 22 19 22 27 27 30 35 34 32 34 37 37 37 38 40 43 45 44 41 40 41 42 40 37 35 31 24 24 33 40 39 36 34 32 26 28 39 45 42 32 22 17 18 22 22 20 23 26 23 28 35 35 33 31 30 33 34
13 12 11 9 7 6 4 4 4 2 0 2 3 4 4 4 4 4 5 7 7 7 9 11 13 14 14 15 18 19 20 21 20 21 25 26 28 33 34 33 34 36 37 39 41 43 46 46 45 44 43 43 43 42 39 38 39 37 30 27 32 35 32 29 30 26 21 27 35 41 41 30 19 15 15 16 19 23 24 21 23 28 28 27 28 31 31 30
11 11 10 8 7 6 5 4 5 4 3 2 2 2 3 3 3 3 4 6 7 6 8 12 13 13 14 15 18 20 21 22 24 25 27 28 29 32 36 36 36 36 38 42 45 45 44 45 47 47 47 47 45 42 41 41 42 43 42 36 32 33 34 33 29 27 26 26 26 31 40 41 32 22 17 17 20 20 20 21 20 21 24 26 26 29 32 31
10 10 9 7 6 6 6 5 4 5 5 4 4 4 4 5 5 5 6 7 9 9 9 12 15 15 16 17 19 22 23 25 27 29 31 33 33 34 38 39 38 40 43 44 44 42 42 46 51 51 50 50 48 44 43 43 42 40 42 43 38 30 34 40 36 33 33 31 26 26 33 37 36 30 24 21 19 17 16 17 16 12 16 21 24 28 30 31
9 8 8 7 6 6 7 6 5 5 6 5 5 5 5 6 6 7 8 9 10 11 12 14 16 17 19 21 22 24 25 27 30 32 33 37 38 38 41 42 42 44 48 48 46 44 44 48 51 52 53 52 50 47 45 45 46 45 43 45 41 31 34 45 43 37 37 35 34 30 25 25 32 34 29 21 16 17 19 13 11 10 12 16 23 28 30 31
8 6 7 7 6 7 7 7 7 7 7 7 7 7 7 7 8 8 9 11 11 13 15 17 18 20 21 23 25 27 29 31 33 35 37 39 41 43 45 46 46 49 51 52 51 51 50 51 52 53 55 54 52 51 50 49 50 50 47 46 47 43 45 52 49 42 40 38 40 39 28 21 27 35 36 30 23 21 23 22 17 16 18 21 26 30 30 31
8 6 6 6 5 6 7 7 8 8 8 8 7 8 8 8 9 10 11 13 14 15 17 19 20 22 24 25 27 29 31 33 34 34 35 36 38 40 43 44 45 47 50 52 53 53 54 56 55 54 54 56 55 54 53 54 53 53 50 48 50 51 52 56 56 50 46 41 41 43 37 31 31 34 37 39 38 31 27 29 29 26 28 30 30 31 30 28
7 6 6 6 6 8 8 9 9 9 9 9 9 9 10 11 12 13 13 15 16 17 19 20 22 24 25 26 28 28 28 28 27 26 25 26 26 29 33 35 36 37 39 42 45 46 48 55 57 56 55 56 57 56 54 54 55 54 53 51 49 49 51 56 60 58 52 47 45 46 42 39 39 40 38 36 40 39 35 39 40 35 34 33 27 28 32 32
7 7 7 7 9 10 11 11 10 10 10 10 11 11 12 14 14 15 15 16 18 19 20 22 23 24 26 26 25 23 20 18 17 17 17 18 19 22 24 27 29 31 32 32 34 35 38 44 49 51 53 56 58 59 58 56 55 55 55 54 52 50 51 57 63 63 59 53 50 48 42 39 41 48 48 41 39 40 41 44 44 38 38 37 29 27 33 38
8 9 8 8 10 11 12 13 12 12 12 13 13 14 15 16 16 17 17 18 19 20 21 23 24 24 24 21 18 14 12 11 13 15 18 19 20 21 21 22 23 26 29 29 29 32 33 34 36 40 47 53 56 59 60 59 58 58 58 57 54 51 52 57 62 63 60 58 55 50 44 41 44 50 53 50 46 45 44 43 40 36 37 37 32 30 33 38
9 10 9 9 11 12 13 14 15 15 15 15 15 16 16 17 17 18 19 19 20 22 22 22 23 22 19 13 9 8 9 12 15 18 20 21 21 22 22 22 22 22 25 27 26 28 30 29 29 32 39 46 50 53 57 60 61 62 62 61 57 52 50 53 59 62 60 58 56 52 47 45 48 53 54 53 52 51 50 48 42 38 36 35 35 35 36 39
9 9 9 10 11 12 13 14 15 16 16 16 16 17 17 18 18 18 20 20 21 21 22 22 21 19 14 8 6 8 12 15 17 18 19 19 19 20 21 22 22 21 24 26 25 25 25 26 25 27 32 37 41 46 52 58 61 63 62 60 58 55 52 51 56 60 60 58 57 55 50 47 51 56 56 54 54 54 52 50 48 45 43 40 39 40 40 41
Wind_Direction
290 289 287 285 283 281 280 278 276 274 273 271 269 268 266 264 264 263 261 259 258 257 257 255 251 253 254 250 244 241 238 237 237 233 231 229 224 223 223 222 223 223 222 222 222 223 222 220 221 224 227 229 231 234 237 238 240 245 246 245 242 246 261 259 306 293 224 258 272 231 214 172 177 199 217 208 184 181 182 189 187 181 178 175 187 210 206 177
293 291 289 287 285 283 281 279 278 276 274 273 271 269 267 265 264 262 261 259 258 256 255 254 252 250 251 252 249 245 240 237 235 234 234 232 227 224 223 224 225 225 224 223 223 224 225 224 223 225 228 231 233 234 237 238 238 242 244 243 241 244 252 253 294 285 200 239 287 234 250 231 200 214 220 214 193 191 190 188 191 175 171 192 203 231 220 204
295 293 291 289 288 286 284 282 280 277 275 273 271 270 268 267 265 263 261 259 258 257 255 253 251 250 248 249 250 248 245 238 233 234 235 235 231 227 225 225 226 226 226 225 225 226 228 230 230 230 231 232 234 235 237 239 240 241 242 242 240 243 252 259 281 259 208 225 305 236 240 229 215 221 213 214 215 208 191 180 179 162 168 208 207 228 230 227
293 292 291 290 289 288 287 285 283 280 277 274 272 270 268 267 265 263 262 260 257 256 256 253 250 249 248 247 247 247 246 241 237 235 234 236 235 230 226 227 227 227 227 227 226 226 229 231 233 235 234 234 234 235 237 239 240 241 242 241 240 241 245 251 266 250 222 235 292 274 235 223 236 240 208 208 219 216 201 185 179 167 176 207 198 205 217 229
288 287 286 286 286 285 285 285 284 283 280 278 274 271 269 267 265 263 262 261 258 256 255 254 252 249 247 246 245 244 244 241 240 237 232 235 236 232 228 228 229 228 228 228 227 227 228 230 231 234 235 236 235 234 235 237 237 237 240 241 240 241 240 245 263 273 255 243 261 268 219 218 236 245 218 214 224 222 211 197 195 188 187 206 195 194 205 215
284 282 281 280 279 279 279 280 280 279 279 278 276 274 271 268 266 264 262 261 259 257 255 254 253 250 246 245 244 244 243 237 239 239 232 235 238 234 231 230 230 229 228 227 228 228 228 228 230 232 234 237 237 235 234 235 237 236 239 241 240 242 241 244 259 272 260 248 251 249 228 233 235 233 222 221 229 224 222 217 209 206 225 239 219 202 202 204
281 280 278 276 275 273 273 273 273 273 273 273 272 272 271 269 267 265 263 261 260 258 257 254 252 251 248 245 242 242 242 236 239 240 234 236 239 237 233 231 231 230 229 228 227 228 228 228 229 231 232 235 236 235 235 236 236 236 239 241 241 241 241 242 244 254 256 257 264 264 257 258 250 237 234 242 242 240 256 244 219 215 246 239 227 215 203 201
279 277 276 274 273 271 269 268 268 268 268 267 267 266 266 265 264 264 262 261 260 258 257 255 253 251 249 247 243 242 241 236 238 238 235 237 239 238 234 233 234 231 230 228 227 228 228 229 229 230 231 233 235 236 236 237 237 238 240 242 241 240 240 242 243 246 251 255 264 272 266 261 254 239 238 244 243 258 279 242 204 197 239 226 219 212 202 202
276 275 274 272 271 270 268 266 265 264 263 262 262 262 261 261 260 260 260 259 258 257 257 255 254 251 249 248 246 243 239 235 238 238 235 235 236 238 235 234 236 234 232 230 228 228 227 229 230 230 230 231 233 233 234 235 237 237 238 239 240 239 241 243 245 246 248 250 253 259 260 258 251 233 233 237 230 246 256 212 197 204 240 231 216 203 201 205
275 274 273 271 270 268 267 265 263 262 261 260 259 259 258 257 256 256 256 256 256 255 255 255 254 253 250 249 247 245 240 237 239 239 237 235 234 236 235 234 235 236 235 232 230 228 227 227 228 229 230 232 233 234 235 235 235 237 238 241 244 242 243 244 245 246 247 249 249 251 254 256 255 235 229 239 230 232 232 223 250 275 234 226 216 206 202 207
276 274 272 271 269 268 266 265 263 261 260 259 257 257 256 255 254 252 252 252 252 252 253 253 253 252 251 250 248 244 242 241 239 239 239 236 234 234 234 234 234 236 236 235 232 229 229 228 228 229 230 232 234 236 239 239 238 241 242 245 248 247 247 246 245 245 245 246 245 248 252 256 262 254 235 242 241 237 241 240 242 240 231 220 216 218 208 209
276 274 273 271 270 268 267 265 263 261 260 258 257 256 255 254 253 251 250 249 249 249 249 250 251 251 251 250 249 245 245 244 240 240 240 238 236 234 233 233 233 235 236 236 235 232 231 230 229 229 230 231 233 235 236 236 238 243 244 246 249 250 248 246 245 245 245 246 245 247 253 255 260 259 247 244 249 248 246 240 234 236 236 220 218 222 214 211
276 274 273 272 270 269 268 266 264 262 260 258 257 256 255 255 253 251 250 248 247 246 246 246 247 248 249 249 249 247 246 244 241 240 240 239 238 235 233 233 232 234 236 236 236 235 233 232 231 229 229 230 232 235 235 235 238 242 245 247 248 248 246 244 246 245 245 248 248 248 251 253 257 260 254 246 248 251 251 241 236 243 240 226 221 220 217 214
277 274 273 271 270 269 268 267 266 264 263 261 258 256 255 254 253 252 251 249 247 246 245 244 244 245 246 247 247 246 246 245 242 240 239 239 239 238 236 234 232 232 234 236 237 237 236 234 233 232 232 231 232 236 237 237 240 243 247 247 247 248 247 245 246 246 247 249 250 250 251 253 256 260 261 259 258 257 258 252 241 243 240 231 225 218 219 218
278 275 273 271 269 268 267 266 265 264 263 262 261 259 256 254 253 252 251 250 248 246 245 244 243 243 243 244 245 245 243 244 243 241 240 239 239 239 238 236 234 233 233 235 237 238 238 236 234 234 234 232 232 235 236 236 238 240 243 245 247 249 248 248 248 247 247 249 251 250 252 255 253 256 260 262 268 264 259 255 246 244 242 237 232 223 220 219
279 277 274 272 270 268 266 265 264 263 262 261 260 259 258 256 254 253 252 251 250 248 247 245 243 243 243 241 242 244 242 242 242 242 241 240 239 239 240 240 237 235 234 234 236 237 238 238 236 235 234 234 234 234 234 235 236 237 240 243 246 248 248 248 251 251 247 247 253 251 251 256 253 251 255 258 264 260 251 248 250 250 243 238 233 225 223 222
279 277 275 273 271 269 268 266 264 263 261 260 259 258 258 257 255 254 252 251 250 249 248 247 245 244 243 241 241 242 242 242 241 240 240 240 241 240 240 240 238 237 236 234 235 236 238 238 237 237 235 235 235 234 234 236 240 241 241 241 243 247 248 247 249 257 256 244 249 254 248 251 255 251 251 252 255 253 246 248 255 258 249 245 238 227 226 223
279 277 275 274 272 270 268 267 265 264 262 261 259 259 258 256 255 254 253 252 250 249 248 247 246 245 244 242 242 242 241 241 240 240 239 239 240 239 238 239 239 239 238 237 236 236 237 237 238 237 235 235 236 237 238 239 241 240 241 239 239 243 244 246 244 258 269 252 241 252 250 248 252 252 249 246 247 249 249 253 260 262 254 250 241 229 226 220
280 277 275 274 273 271 269 267 266 265 263 262 261 259 258 257 255 254 254 253 252 250 249 247 247 247 246 243 243 242 241 241 240 239 238 237 237 237 237 239 239 239 239 239 237 236 236 236 237 237 237 238 240 241 239 236 235 234 237 239 239 240 239 242 235 217 257 262 250 245 247 249 250 249 247 243 245 246 247 253 257 256 251 247 239 231 227 219
280 278 276 274 273 271 270 268 266 265 264 262 261 260 259 258 256 255 254 254 253 252 251 249 247 248 247 245 245 244 242 241 240 239 237 236 236 235 236 238 238 239 240 239 238 237 237 236 236 237 239 239 237 237 235 233 234 231 230 230 231 235 233 237 236 212 225 264 277 255 244 249 250 248 247 245 244 243 242 249 251 249 250 245 235 227 224 218
282 279 276 275 274 272 270 268 267 265 264 263 262 261 260 259 258 256 255 254 254 253 252 251 249 248 248 246 245 245 244 242 240 239 238 237 236 235 234 236 237 238 238 239 239 238 238 237 237 237 237 236 233 232 231 230 233 233 233 234 232 232 229 230 235 228 220 233 260 266 265 259 252 250 250 247 243 241 241 243 245 246 245 238 230 226 222 216
284 281 278 276 275 273 272 270 268 266 265 264 262 261 260 259 258 257 255 254 254 253 253 252 251 250 249 247 245 245 244 243 241 239 239 239 238 237 235 235 236 236 237 237 238 239 239 238 237 235 234 234 233 231 231 230 232 234 236 238 238 235 231 228 227 230 235 228 227 255 275 266 256 253 249 245 242 242 243 241 242 243 236 227 230 236 223 211
284 283 281 278 275 273 272 270 269 268 267 265 263 263 261 260 259 258 257 255 253 253 252 251 251 251 250 249 246 245 245 244 242 240 240 240 240 239 237 237 237 236 236 236 237 240 240 239 236 234 232 232 233 232 231 231 232 235 236 236 237 234 231 232 226 217 235 238 222 225 256 264 266 259 248 247 247 247 246 243 244 245 240 231 233 241 224 206
285 283 282 280 277 274 271 270 270 268 267 265 264 263 262 261 260 258 257 257 255 253 253 251 250 250 250 249 248 246 245 244 243 241 240 241 241 241 240 239 239 238 238 237 238 239 239 237 235 233 232 230 231 232 232 233 233 235 238 238 236 234 231 230 228 219 230 243 231 211 232 262 269 259 247 248 250 250 249 247 248 248 249 243 236 240 229 212
288 285 281 279 278 275 273 271 269 268 266 264 263 262 261 260 260 259 258 258 256 253 253 252 250 250 249 249 249 247 246 244 243 241 241 241 240 241 240 240 239 239 239 239 238 238 237 236 234 232 232 230 230 232 233 233 233 234 236 238 237 234 232 228 224 221 226 244 241 220 215 238 250 247 245 248 251 253 250 245 247 248 248 246 241 243 237 225
289 286 282 279 276 274 273 271 268 267 265 263 261 260 260 258 258 258 256 258 257 252 251 252 250 250 249 248 247 246 245 244 242 241 240 240 239 239 239 239 239 238 238 238 238 237 236 235 234 233 232 231 231 232 233 234 234 234 234 237 238 235 235 232 226 223 220 227 237 231 226 232 236 239 246 252 257 260 256 249 246 244 243 245 246 245 241 238
289 287 284 281 277 275 272 271 269 267 264 263 262 260 259 258 257 256 255 257 256 251 248 249 248 247 246 247 246 244 244 243 242 240 239 239 238 238 238 238 237 236 235 236 237 237 237 235 234 234 233 232 232 232 234 234 235 235 233 234 236 235 236 235 232 231 230 229 231 229 233 241 243 244 248 254 259 259 255 251 248 242 239 242 247 246 243 242
291 289 286 284 282 278 274 272 270 269 267 265 264 262 261 259 257 256 252 250 251 251 248 246 246 245 244 244 244 244 243 243 242 240 239 239 238 237 238 237 236 236 235 234 234 235 236 235 234 234 234 233 233 233 234 234 235 236 233 233 234 234 234 235 235 234 235 237 236 231 231 239 245 248 247 246 253 256 253 249 247 242 239 239 243 244 242 242
295 292 289 287 285 281 278 275 273 273 271 269 268 264 260 258 255 252 249 246 248 251 251 248 244 244 245 243 243 243 242 242 242 240 239 239 238 237 237 237 237 238 238 236 234 233 234 233 232 232 233 233 232 233 233 233 234 234 232 232 234 234 234 235 234 233 232 236 239 237 236 238 242 249 251 243 241 249 257 255 248 241 238 234 234 238 238 240
301 296 292 288 285 282 280 280 278 275 273 272 270 264 259 254 250 247 245 246 249 250 252 252 247 243 245 246 243 241 241 242 242 241 241 240 239 238 238 237 237 238 238 238 237 236 237 238 235 232 232 232 231 231 232 232 233 233 233 234 236 237 237 237 237 236 235 237 238 239 241 244 242 240 246 251 245 242 251 261 258 247 238 233 235 238 235 236
304 299 293 288 286 284 283 284 282 276 274 271 267 263 258 250 247 243 238 244 253 253 249 249 249 246 245 249 248 241 240 243 242 240 240 239 238 238 238 237 236 235 236 237 237 237 239 241 241 238 235 233 233 232 231 233 234 233 232 234 236 236 239 241 240 239 239 240 241 241 242 246 247 241 237 242 252 246 237 247 258 257 250 245 245 243 236 238
305 299 292 289 289 288 288 286 280 276 272 268 264 260 253 249 244 237 239 245 249 248 246 246 250 251 246 248 250 243 240 242 240 239 239 238 239 238 236 236 234 234 235 237 237 236 237 238 238 240 238 234 234 235 233 232 234 234 232 234 236 236 238 241 241 240 241 242 244 245 245 246 248 247 241 234 244 251 241 235 246 260 263 254 242 241 240 242
304 297 292 292 292 292 291 286 277 270 267 263 261 256 251 246 234 221 227 243 239 242 248 246 244 246 245 245 246 242 242 241 237 237 239 236 236 239 239 238 237 236 236 235 237 236 238 241 241 241 241 237 233 233 236 235 234 233 231 233 234 235 238 241 243 243 242 243 243 245 248 248 249 250 247 238 235 246 250 245 240 250 259 255 246 245 243 241
304 297 294 294 294 293 291 286 275 265 263 259 254 250 244 238 231 216 212 236 243 246 250 244 241 244 245 246 245 242 242 240 235 235 238 236 235 240 243 240 234 235 236 235 236 234 229 238 251 251 250 247 238 231 233 237 236 234 233 234 234 234 236 239 244 248 248 246 245 246 247 248 250 252 252 247 239 241 250 252 241 237 244 253 254 250 243 239
311 302 297 295 295 293 290 284 273 263 259 256 251 249 242 235 233 225 225 238 249 255 251 244 244 247 246 247 247 243 241 239 233 232 237 236 231 233 239 236 230 231 234 233 234 233 221 203 230 246 238 244 245 237 231 232 235 235 234 234 234 233 235 237 238 242 248 249 246 247 251 252 252 253 255 255 249 244 246 244 237 239 244 249 251 248 244 242
316 308 302 299 296 292 286 278 269 260 255 253 250 247 242 238 239 238 240 247 253 258 259 252 246 247 251 254 249 240 239 241 235 230 236 236 229 233 239 238 235 235 235 234 233 236 226 204 204 223 218 223 241 242 233 228 228 232 234 236 236 233 233 236 238 236 235 240 240 240 247 256 260 260 257 256 256 251 247 241 237 246 252 250 250 248 243 241
322 313 306 303 299 292 285 276 266 258 251 251 249 244 242 241 244 246 246 250 254 256 260 258 247 243 243 251 255 246 235 237 238 230 230 235 233 237 243 242 240 239 238 235 234 236 232 218 215 223 222 224 230 229 231 227 221 220 226 235 240 238 236 234 235 237 235 235 237 235 235 244 257 265 266 263 260 255 251 246 239 239 239 234 240 245 241 240
331 321 315 313 311 304 295 285 272 261 249 242 238 237 241 243 247 249 247 250 255 253 248 248 248 247 233 197 235 251 235 222 238 235 230 237 239 239 241 241 240 240 238 235 234 236 237 231 225 223 217 218 228 228 232 233 224 217 215 217 223 232 240 239 234 234 235 235 237 235 232 231 233 251 272 277 263 256 254 250 242 237 235 230 237 250 250 245
337 331 331 336 338 329 310 295 278 262 245 237 232 232 238 242 247 251 248 249 252 245 241 244 249 256 246 215 231 254 250 235 246 245 235 238 244 245 243 242 242 241 239 238 237 239 240 236 231 229 224 222 228 233 232 234 231 222 217 215 212 212 222 236 240 238 236 235 237 237 236 233 222 224 255 271 268 269 266 253 245 242 242 241 244 254 253 247
339 339 353 2 1 353 331 319 299 243 224 221 230 234 235 239 245 245 239 239 240 239 240 245 248 253 250 241 248 259 258 250 246 246 244 246 250 251 248 246 245 243 239 238 240 241 242 240 235 231 232 231 233 240 241 240 238 229 224 221 218 216 214 217 229 239 240 236 234 234 236 237 233 223 226 246 267 285 286 260 242 240 244 243 238 243 250 248
340 346 2 8 6 6 8 39 61 102 209 202 221 244 243 239 237 232 230 232 235 239 241 237 243 248 247 248 253 253 253 255 250 247 251 254 257 257 253 249 247 246 242 238 238 239 239 241 238 233 233 235 236 238 243 244 233 221 224 223 217 219 220 218 219 225 239 240 233 230 229 226 230 234 233 236 249 271 281 265 234 229 239 243 236 236 245 244
343 350 358 360 2 5 14 53 67 54 308 215 238 254 257 247 238 233 235 242 241 239 242 242 246 253 253 252 257 259 261 267 264 256 252 248 250 257 259 256 250 248 246 241 240 240 240 243 244 240 237 237 237 235 235 237 231 221 221 217 211 218 221 222 226 223 230 243 237 232 229 215 196 204 225 231 227 237 258 259 232 220 224 233 236 237 239 237
345 348 350 353 4 8 10 39 48 28 15 349 309 298 290 289 288 283 271 268 267 257 254 263 269 272 269 265 268 272 274 274 272 269 262 253 252 259 264 264 261 256 252 247 244 244 244 246 246 243 241 239 239 240 239 241 241 235 229 217 206 215 216 213 222 223 219 231 237 235 232 221 204 194 195 201 204 214 238 252 240 219 219 227 233 237 238 235
348 348 348 356 17 24 23 32 26 4 1 350 332 328 312 308 310 300 290 285 286 284 278 279 282 283 280 277 275 276 278 277 275 274 273 268 265 265 264 265 266 264 262 258 253 248 244 245 245 242 241 240 238 239 241 243 243 241 237 224 212 217 218 210 212 215 210 210 216 232 239 226 212 204 201 203 204 198 212 250 260 231 227 239 234 232 237 236
354 352 353 4 22 29 26 23 13 357 352 343 329 323 315 310 309 303 300 297 295 295 293 288 286 286 284 281 280 279 278 276 275 275 275 274 273 270 267 267 266 265 266 264 261 257 249 245 244 242 241 239 236 234 235 236 236 235 235 226 217 220 219 210 210 214 211 203 198 210 231 229 216 210 202 201 216 205 191 213 250 220 210 237 235 225 228 233
1 358 3 12 17 16 13 8 2 356 347 339 332 325 321 319 314 310 308 304 300 297 294 291 288 285 284 282 280 279 278 276 276 276 275 274 273 271 268 267 265 264 264 262 260 260 255 249 245 242 240 238 234 233 231 231 232 232 233 228 222 221 214 205 206 208 209 207 197 195 203 207 209 215 211 205 208 202 184 188 211 209 199 216 226 222 222 228
3 2 7 15 8 359 2 357 351 351 344 337 336 329 322 320 314 310 307 301 299 296 291 289 287 285 284 283 281 282 282 281 279 278 277 275 274 272 269 266 264 263 262 259 258 257 255 253 249 245 241 237 234 234 234 234 233 232 234 232 228 228 217 206 204 202 204 208 197 188 192 193 195 211 216 212 214 210 194 195 205 203 200 210 218 217 214 215
2 357 355 359 353 346 349 348 343 343 339 332 330 325 318 313 308 305 303 299 296 293 290 289 288 286 286 287 287 287 286 284 283 283 284 283 280 278 275 271 267 264 262 259 258 257 254 251 249 246 244 239 234 232 232 235 236 233 233 233 232 232 223 212 208 205 204 206 195 187 191 192 196 208 207 204 215 216 207 210 214 208 211 223 225 216 208 201
1 352 345 347 350 345 342 342 338 334 333 329 325 320 314 310 308 305 303 300 297 295 293 292 292 293 294 295 294 291 287 289 292 292 292 294 291 286 284 279 270 263 261 259 259 260 257 251 248 246 244 240 236 232 228 230 233 233 232 231 230 228 222 214 211 208 206 205 197 191 195 194 199 209 206 201 213 216 210 217 223 219 221 228 225 214 210 207
354 347 345 345 346 344 342 340 337 333 332 329 324 320 315 312 311 309 306 304 302 300 299 299 299 301 303 300 294 291 293 299 301 297 294 293 290 288 287 285 274 261 254 253 255 257 258 255 250 246 243 239 236 233 228 227 229 229 228 229 229 228 224 218 214 211 209 208 201 195 196 199 203 208 207 206 214 217 215 220 223 219 219 219 214 210 211 214
353 347 347 347 344 344 343 340 337 333 331 329 326 324 321 317 315 312 309 307 306 304 304 307 308 308 305 297 288 295 305 303 300 298 297 295 290 286 285 284 280 267 255 252 254 256 254 251 248 248 247 241 236 233 229 227 229 228 227 228 228 228 228 223 217 213 210 209 205 198 197 203 207 208 205 206 212 218 220 223 223 220 214 210 206 207 209 213
354 350 347 347 346 345 343 340 337 334 333 332 330 328 324 321 318 315 313 310 308 310 312 314 315 309 297 285 283 300 309 310 307 304 301 300 292 284 281 281 280 273 262 256 255 258 254 247 245 250 251 246 239 233 228 227 229 228 226 228 228 227 228 225 220 216 212 209 204 198 199 207 210 209 207 207 210 214 217 218 219 218 214 210 208 209 210 212
Height
5863 5863 5863 5862 5862 5862 5862 5862 5862 5862 5862 5862 5862 5862 5862 5862 5863 5863 5863 5863 5863 5863 5864 5864 5865 5865 5865 5865 5866 5866 5867 5868 5868 5869 5870 5870 5871 5872 5873 5873 5874 5875 5876 5877 5878 5879 5880 5880 5881 5882 5883 5884 5885 5887 5887 5888 5888 5889 5889 5890 5891 5892 5891 5891 5892 5893 5892 5892 5892 5892 5893 5895 5895 5896 5895 5896 5898 5898 5899 5899 5900 5901 5902 5903 5904 5905 5904 5905
5861 5861 5860 5860 5860 5859 5859 5859 5859 5859 5859 5859 5859 5859 5859 5860 5860 5860 5860 5861 5861 5861 5862 5862 5863 5864 5864 5864 5864 5865 5865 5866 5867 5868 5868 5868 5869 5870 5871 5872 5873 5874 5875 5876 5877 5878 5879 5880 5881 5881 5882 5883 5884 5886 5886 5887 5888 5888 5889 5890 5891 5892 5891 5892 5893 5893 5893 5894 5893 5893 5893 5893 5894 5894 5895 5897 5898 5898 5899 5900 5900 5901 5903 5904 5905 5905 5905 5905
5859 5859 5858 5857 5857 5857 5857 5857 5857 5857 5857 5857 5857 5857 5857 5857 5857 5858 5858 5858 5858 5859 5859 5860 5861 5861 5862 5863 5863 5863 5864 5865 5866 5867 5866 5866 5868 5869 5869 5870 5871 5872 5874 5875 5876 5877 5878 5879 5880 5881 5882 5883 5883 5885 5885 5886 5887 5888 5888 5889 5891 5891 5891 5892 5893 5893 5894 5894 5894 5895 5895 5894 5894 5894 5895 5896 5897 5897 5899 5900 5901 5902 5903 5903 5904 5905 5906 5906
5857 5857 5856 5855 5855 5855 5854 5854 5854 5854 5854 5854 5854 5854 5854 5854 5855 5855 5855 5855 5856 5856 5857 5857 5858 5859 5860 5860 5861 5862 5862 5864 5865 5864 5864 5865 5865 5867 5868 5869 5869 5871 5872 5874 5875 5876 5877 5878 5879 5880 5881 5882 5882 5883 5884 5886 5886 5887 5887 5889 5890 5891 5891 5892 5893 5894 5895 5894 5894 5895 5894 5894 5894 5894 5895 5896 5896 5897 5898 5900 5901 5902 5902 5903 5904 5905 5905 5906
5855 5855 5854 5853 5853 5852 5852 5852 5852 5852 5852 5852 5852 5852 5852 5852 5852 5852 5852 5853 5853 5854 5854 5855 5856 5856 5857 5858 5859 5859 5860 5863 5863 5862 5863 5864 5863 5865 5866 5867 5868 5869 5871 5872 5874 5875 5876 5877 5877 5878 5879 5880 5881 5882 5883 5884 5884 5886 5887 5888 5890 5890 5891 5892 5893 5894 5894 5894 5894 5895 5895 5895 5894 5895 5895 5894 5895 5896 5898 5900 5901 5901 5902 5902 5903 5904 5905 5905
5853 5852 5852 5851 5851 5850 5850 5849 5849 5849 5849 5849 5849 5849 5849 5850 5850 5850 5850 5850 5850 5851 5852 5852 5853 5854 5855 5855 5856 5857 5858 5861 5860 5860 5862 5862 5862 5863 5864 5865 5866 5867 5869 5871 5872 5873 5874 5875 5876 5877 5878 5878 5879 5881 5881 5882 5883 5885 5886 5888 5889 5890 5891 5892 5893 5894 5894 5895 5895 5895 5896 5895 5895 5896 5895 5894 5895 5897 5899 5900 5900 5901 5902 5902 5902 5904 5904 5905
5850 5850 5849 5849 5848 5848 5848 5847 5847 5847 5847 5847 5847 5847 5847 5847 5847 5847 5848 5848 5848 5849 5849 5850 5850 5851 5852 5853 5854 5854 5856 5858 5857 5858 5860 5860 5860 5862 5863 5864 5864 5866 5867 5868 5870 5871 5872 5873 5874 5875 5876 5877 5878 5879 5880 5880 5881 5883 5885 5886 5887 5888 5891 5892 5893 5894 5894 5894 5894 5894 5893 5894 5895 5895 5895 5895 5896 5897 5898 5899 5900 5901 5902 5902 5903 5903 5904 5905
5847 5847 5846 5846 5845 5845 5845 5845 5844 5844 5844 5844 5844 5844 5844 5844 5845 5845 5845 5846 5846 5846 5847 5847 5848 5849 5849 5850 5851 5852 5854 5856 5854 5855 5858 5858 5859 5860 5861 5862 5862 5864 5865 5866 5868 5869 5870 5872 5873 5873 5875 5876 5876 5878 5878 5879 5880 5883 5884 5884 5885 5887 5889 5891 5892 5894 5894 5893 5893 5893 5892 5892 5894 5895 5896 5896 5896 5896 5897 5899 5901 5901 5902 5903 5903 5903 5904 5904
5844 5843 5843 5842 5842 5842 5842 5842 5841 5841 5841 5841 5841 5841 5841 5841 5842 5842 5842 5843 5843 5844 5844 5845 5845 5846 5847 5847 5848 5849 5852 5852 5851 5854 5855 5856 5857 5858 5860 5860 5861 5862 5863 5865 5866 5867 5869 5870 5871 5872 5873 5873 5874 5876 5876 5877 5880 5881 5881 5882 5884 5886 5888 5890 5891 5892 5893 5893 5893 5893 5892 5892 5894 5896 5896 5897 5898 5898 5898 5900 5901 5901 5901 5902 5903 5903 5904 5904
5841 5840 5839 5839 5838 5838 5838 5838 5838 5838 5838 5838 5838 5838 5838 5838 5839 5839 5839 5840 5841 5841 5842 5842 5843 5843 5844 5845 5846 5848 5849 5848 5850 5851 5852 5853 5855 5856 5857 5858 5859 5860 5861 5863 5864 5865 5866 5867 5868 5869 5871 5872 5873 5874 5875 5877 5879 5879 5879 5881 5883 5886 5887 5889 5891 5891 5892 5892 5893 5894 5891 5890 5893 5896 5897 5897 5899 5899 5899 5900 5900 5900 5901 5902 5903 5903 5903 5904
5837 5836 5835 5835 5834 5834 5834 5834 5834 5834 5834 5835 5835 5835 5835 5835 5836 5836 5836 5837 5838 5838 5839 5839 5840 5841 5842 5843 5844 5845 5845 5846 5848 5849 5849 5851 5852 5854 5855 5856 5857 5858 5859 5860 5862 5863 5864 5865 5866 5868 5870 5871 5872 5873 5875 5876 5877 5877 5879 5881 5883 5885 5887 5888 5890 5891 5891 5892 5892 5893 5891 5890 5890 5893 5895 5896 5897 5898 5899 5901 5901 5902 5902 5902 5903 5903 5903 5903
5833 5832 5831 5830 5830 5830 5830 5830 5830 5830 5830 5831 5831 5831 5831 5832 5832 5833 5833 5834 5834 5835 5836 5836 5837 5838 5839 5840 5841 5842 5843 5844 5846 5846 5847 5848 5849 5851 5852 5854 5855 5856 5857 5858 5859 5860 5861 5863 5865 5866 5868 5869 5870 5872 5872 5874 5876 5877 5879 5880 5882 5884 5886 5888 5889 5890 5891 5891 5891 5892 5891 5891 5889 5890 5894 5896 5896 5898 5900 5901 5902 5902 5902 5902 5902 5902 5903 5903
5829 5828 5827 5826 5826 5825 5825 5825 5825 5826 5826 5826 5827 5827 5827 5828 5828 5829 5830 5830 5831 5832 5832 5833 5834 5835 5836 5837 5838 5840 5841 5842 5843 5844 5845 5846 5847 5848 5850 5851 5852 5853 5854 5855 5857 5858 5860 5861 5863 5865 5865 5867 5869 5869 5870 5873 5875 5876 5878 5879 5881 5882 5884 5887 5888 5888 5890 5890 5890 5891 5891 5891 5890 5889 5893 5896 5896 5898 5900 5901 5902 5901 5902 5902 5902 5902 5903 5903
5825 5824 5823 5822 5821 5821 5821 5820 5820 5821 5821 5822 5822 5823 5823 5824 5824 5825 5826 5826 5827 5828 5829 5830 5831 5832 5833 5834 5835 5836 5838 5839 5840 5842 5842 5843 5844 5845 5847 5849 5850 5851 5852 5853 5854 5856 5858 5859 5861 5862 5863 5866 5867 5867 5870 5873 5874 5875 5876 5877 5879 5881 5883 5886 5886 5887 5889 5889 5889 5889 5890 5891 5891 5889 5890 5893 5895 5897 5898 5899 5901 5901 5900 5901 5901 5902 5903 5903
5820 5819 5818 5818 5817 5817 5816 5816 5816 5816 5817 5817 5818 5818 5819 5819 5820 5821 5821 5822 5823 5824 5825 5826 5827 5828 5829 5831 5831 5833 5835 5836 5837 5839 5840 5841 5842 5843 5844 5846 5847 5849 5850 5851 5852 5854 5855 5857 5859 5860 5862 5864 5865 5866 5869 5870 5871 5873 5873 5875 5878 5880 5882 5884 5885 5886 5887 5887 5887 5888 5889 5890 5890 5889 5889 5892 5894 5896 5896 5897 5899 5899 5899 5900 5901 5902 5902 5902
5815 5814 5813 5813 5813 5812 5811 5811 5811 5811 5812 5812 5813 5814 5814 5815 5816 5817 5817 5818 5819 5820 5821 5822 5824 5825 5825 5827 5828 5829 5831 5832 5834 5836 5837 5838 5839 5840 5842 5843 5845 5846 5847 5848 5850 5851 5853 5855 5856 5858 5859 5861 5863 5865 5866 5867 5869 5871 5872 5875 5877 5878 5881 5883 5884 5884 5886 5886 5885 5887 5889 5889 5888 5889 5890 5891 5893 5894 5896 5896 5897 5898 5899 5900 5900 5901 5901 5902
5809 5809 5808 5808 5808 5807 5807 5807 5806 5807 5807 5808 5808 5809 5810 5810 5811 5812 5813 5814 5815 5816 5817 5818 5820 5821 5821 5823 5824 5825 5827 5829 5830 5832 5834 5835 5836 5838 5839 5840 5841 5843 5844 5846 5847 5849 5850 5852 5854 5856 5857 5859 5861 5863 5864 5867 5869 5870 5871 5873 5875 5876 5879 5881 5883 5883 5883 5884 5884 5885 5887 5887 5886 5888 5889 5890 5891 5892 5894 5896 5896 5897 5899 5899 5900 5900 5901 5902
5804 5804 5803 5803 5802 5802 5802 5802 5802 5802 5802 5803 5804 5804 5805 5805 5806 5807 5808 5809 5810 5811 5812 5813 5815 5816 5817 5819 5821 5822 5823 5825 5827 5828 5830 5832 5833 5835 5836 5837 5838 5840 5842 5843 5845 5846 5848 5849 5851 5853 5855 5857 5859 5861 5864 5867 5868 5868 5869 5870 5873 5874 5876 5879 5882 5883 5881 5881 5883 5883 5884 5886 5886 5886 5888 5890 5890 5891 5893 5894 5895 5896 5898 5899 5899 5900 5901 5902
5798 5798 5798 5798 5797 5797 5797 5797 5797 5797 5797 5798 5798 5799 5800 5800 5801 5802 5803 5805 5806 5807 5808 5809 5811 5811 5813 5816 5817 5818 5820 5821 5823 5825 5827 5828 5830 5831 5833 5834 5836 5837 5838 5840 5842 5843 5845 5846 5848 5850 5853 5856 5859 5860 5863 5864 5864 5865 5866 5868 5871 5872 5874 5877 5880 5884 5882 5879 5880 5881 5882 5884 5884 5884 5885 5888 5889 5890 5893 5894 5895 5896 5897 5897 5898 5899 5901 5901
5793 5792 5792 5793 5792 5792 5791 5791 5791 5792 5792 5792 5793 5794 5795 5795 5796 5797 5798 5799 5800 5802 5803 5805 5806 5807 5808 5812 5813 5814 5816 5817 5819 5821 5823 5825 5826 5828 5829 5831 5832 5834 5835 5837 5839 5840 5842 5843 5845 5849 5852 5855 5856 5858 5860 5860 5860 5861 5862 5864 5867 5868 5872 5875 5878 5882 5882 5880 5880 5879 5881 5882 5881 5882 5884 5886 5887 5889 5892 5893 5893 5895 5895 5896 5897 5898 5900 5900
5787 5787 5787 5787 5787 5786 5786 5786 5786 5787 5787 5787 5788 5788 5789 5790 5791 5792 5793 5794 5795 5797 5798 5800 5801 5802 5804 5807 5809 5809 5811 5813 5814 5817 5818 5821 5823 5824 5826 5827 5829 5830 5832 5834 5835 5837 5838 5840 5844 5848 5850 5851 5852 5854 5856 5857 5857 5859 5860 5861 5864 5866 5870 5873 5875 5879 5880 5882 5883 5880 5880 5880 5878 5880 5882 5884 5885 5887 5891 5892 5892 5894 5894 5895 5897 5897 5898 5899
5781 5781 5782 5782 5781 5780 5780 5780 5780 5781 5781 5781 5782 5783 5783 5785 5785 5787 5788 5789 5790 5791 5793 5794 5796 5798 5800 5802 5804 5805 5806 5808 5810 5812 5815 5817 5818 5819 5822 5824 5825 5827 5829 5830 5831 5833 5835 5839 5843 5845 5846 5847 5849 5850 5852 5854 5855 5856 5858 5859 5862 5865 5868 5870 5872 5877 5878 5879 5882 5882 5880 5879 5877 5877 5879 5882 5884 5885 5888 5890 5890 5892 5893 5894 5896 5896 5896 5897
5776 5776 5776 5776 5776 5775 5775 5775 5775 5775 5776 5776 5777 5777 5778 5779 5780 5781 5783 5784 5785 5786 5787 5789 5791 5793 5795 5797 5799 5800 5801 5803 5805 5808 5811 5812 5813 5815 5818 5820 5821 5824 5825 5827 5828 5830 5833 5837 5840 5841 5842 5844 5845 5847 5849 5850 5852 5853 5855 5857 5861 5864 5866 5868 5871 5875 5875 5873 5877 5882 5882 5880 5877 5875 5875 5879 5880 5880 5883 5886 5888 5891 5892 5893 5893 5894 5896 5896
5771 5771 5770 5770 5770 5770 5770 5770 5770 5770 5770 5771 5772 5772 5773 5774 5775 5776 5777 5778 5780 5782 5782 5784 5786 5788 5790 5792 5793 5795 5797 5798 5800 5803 5806 5807 5808 5811 5814 5816 5818 5820 5821 5823 5825 5827 5830 5833 5835 5837 5838 5840 5842 5844 5845 5847 5850 5851 5853 5855 5859 5862 5863 5866 5868 5871 5870 5869 5873 5878 5881 5880 5877 5873 5873 5875 5876 5876 5880 5883 5886 5889 5890 5890 5892 5894 5895 5895
5767 5767 5766 5766 5765 5765 5765 5765 5765 5765 5765 5766 5767 5767 5768 5769 5770 5770 5772 5773 5774 5777 5778 5779 5782 5783 5785 5787 5788 5790 5792 5793 5795 5798 5800 5802 5804 5807 5809 5811 5813 5815 5817 5819 5821 5823 5826 5829 5831 5832 5834 5837 5839 5841 5842 5844 5847 5848 5851 5853 5856 5859 5860 5862 5865 5865 5866 5867 5870 5873 5876 5877 5876 5874 5874 5874 5875 5875 5878 5883 5885 5887 5887 5888 5891 5892 5893 5895
5763 5762 5762 5762 5761 5761 5761 5760 5760 5761 5761 5762 5762 5763 5764 5764 5765 5766 5768 5768 5768 5771 5773 5774 5777 5778 5780 5782 5783 5785 5786 5787 5790 5793 5795 5797 5800 5802 5804 5807 5809 5811 5813 5814 5816 5819 5822 5824 5827 5829 5831 5833 5836 5837 5839 5841 5843 5845 5848 5851 5853 5855 5856 5858 5859 5860 5862 5864 5867 5868 5870 5872 5871 5873 5874 5874 5875 5874 5875 5879 5883 5885 5886 5886 5889 5890 5891 5894
5759 5759 5758 5758 5758 5758 5757 5757 5757 5757 5757 5758 5758 5760 5760 5761 5762 5762 5765 5764 5763 5766 5769 5770 5772 5773 5775 5776 5778 5780 5781 5783 5786 5788 5791 5793 5795 5798 5800 5802 5804 5806 5807 5809 5812 5814 5817 5820 5823 5825 5827 5829 5832 5835 5837 5838 5840 5842 5846 5848 5850 5852 5853 5854 5855 5856 5858 5860 5862 5865 5866 5867 5867 5870 5873 5873 5873 5872 5872 5875 5879 5883 5885 5886 5887 5889 5889 5892
5756 5755 5754 5754 5754 5754 5754 5754 5754 5753 5754 5754 5755 5756 5756 5757 5758 5759 5761 5761 5759 5762 5765 5767 5768 5769 5771 5772 5773 5775 5777 5779 5781 5784 5787 5788 5790 5793 5794 5797 5799 5800 5801 5805 5807 5810 5813 5816 5818 5820 5823 5826 5829 5832 5833 5835 5837 5839 5843 5844 5845 5847 5849 5850 5851 5853 5857 5857 5857 5860 5862 5863 5864 5867 5872 5873 5871 5870 5870 5873 5876 5881 5884 5886 5887 5887 5888 5891
5752 5751 5751 5750 5750 5750 5751 5751 5751 5750 5750 5751 5752 5752 5753 5754 5755 5756 5757 5757 5758 5759 5761 5763 5764 5766 5767 5768 5770 5771 5773 5774 5776 5780 5782 5783 5786 5788 5789 5792 5794 5795 5797 5800 5803 5805 5807 5809 5812 5815 5818 5822 5825 5827 5828 5831 5833 5835 5838 5840 5841 5843 5845 5845 5845 5849 5853 5851 5852 5857 5859 5860 5862 5866 5869 5871 5871 5870 5869 5870 5873 5879 5883 5886 5887 5886 5886 5890
5748 5748 5747 5747 5747 5747 5747 5747 5747 5747 5747 5748 5748 5749 5750 5751 5752 5753 5755 5755 5756 5758 5758 5758 5760 5763 5764 5765 5766 5767 5769 5771 5773 5776 5777 5779 5782 5783 5785 5788 5790 5791 5793 5796 5799 5801 5802 5803 5807 5811 5814 5817 5820 5821 5824 5826 5828 5831 5834 5837 5838 5840 5840 5839 5841 5846 5848 5846 5848 5855 5857 5857 5860 5864 5867 5868 5870 5871 5871 5869 5868 5874 5880 5883 5885 5885 5886 5889
5745 5745 5744 5744 5744 5744 5744 5745 5744 5744 5745 5745 5746 5746 5747 5748 5750 5752 5753 5753 5754 5755 5755 5755 5758 5760 5761 5762 5762 5764 5767 5768 5769 5772 5773 5775 5777 5779 5781 5783 5784 5786 5789 5792 5795 5797 5798 5800 5804 5807 5809 5812 5814 5816 5820 5822 5824 5828 5832 5833 5834 5836 5836 5836 5839 5843 5843 5843 5848 5853 5856 5855 5855 5860 5866 5868 5868 5870 5873 5872 5867 5868 5874 5878 5881 5883 5885 5887
5742 5742 5741 5741 5741 5741 5741 5742 5742 5741 5742 5743 5743 5744 5745 5746 5748 5750 5751 5752 5752 5751 5751 5753 5756 5757 5759 5760 5759 5761 5764 5764 5766 5768 5769 5772 5774 5775 5776 5776 5778 5783 5787 5787 5789 5792 5794 5797 5799 5801 5803 5807 5809 5812 5816 5818 5821 5825 5828 5829 5829 5832 5832 5833 5836 5838 5838 5842 5848 5852 5853 5852 5851 5856 5863 5867 5867 5867 5870 5873 5871 5868 5869 5874 5878 5881 5883 5884
5740 5739 5739 5739 5739 5739 5739 5739 5740 5739 5740 5741 5742 5742 5744 5745 5747 5748 5750 5750 5748 5747 5749 5752 5754 5754 5756 5756 5756 5759 5761 5761 5763 5765 5766 5769 5771 5771 5771 5772 5777 5781 5782 5782 5785 5789 5792 5794 5795 5796 5798 5800 5804 5809 5811 5814 5817 5821 5823 5824 5825 5828 5829 5830 5833 5834 5836 5841 5846 5850 5849 5847 5849 5853 5858 5864 5867 5865 5866 5871 5875 5872 5868 5869 5875 5878 5880 5882
5738 5738 5737 5737 5736 5736 5736 5737 5737 5737 5738 5739 5740 5741 5742 5743 5744 5745 5746 5744 5744 5746 5748 5750 5751 5752 5754 5753 5754 5757 5758 5758 5761 5763 5764 5766 5768 5768 5767 5768 5774 5776 5777 5779 5783 5785 5789 5793 5793 5793 5794 5795 5799 5805 5808 5810 5813 5816 5818 5819 5821 5824 5827 5829 5832 5833 5835 5840 5845 5847 5844 5844 5847 5849 5853 5859 5864 5864 5865 5870 5873 5873 5870 5868 5870 5875 5878 5879
5737 5736 5735 5735 5734 5734 5734 5734 5735 5735 5736 5737 5738 5739 5740 5740 5741 5741 5741 5740 5742 5745 5746 5747 5749 5750 5751 5751 5752 5754 5755 5756 5758 5760 5761 5762 5765 5765 5761 5764 5770 5772 5773 5777 5778 5780 5785 5790 5789 5788 5791 5792 5793 5799 5803 5805 5807 5810 5813 5814 5816 5821 5824 5826 5829 5832 5834 5837 5841 5842 5841 5842 5845 5848 5850 5854 5858 5861 5864 5868 5870 5870 5871 5868 5867 5873 5877 5878
5736 5734 5733 5732 5732 5732 5732 5732 5733 5733 5734 5735 5736 5736 5737 5737 5737 5738 5739 5739 5741 5743 5744 5745 5747 5747 5748 5749 5749 5750 5752 5753 5755 5758 5758 5759 5761 5759 5757 5763 5769 5769 5770 5773 5775 5776 5780 5783 5783 5783 5787 5789 5790 5793 5795 5799 5803 5807 5809 5810 5813 5819 5822 5823 5825 5828 5831 5831 5834 5838 5840 5841 5843 5845 5847 5849 5852 5857 5860 5864 5868 5868 5870 5868 5864 5869 5876 5877
5734 5732 5731 5730 5730 5730 5729 5730 5730 5731 5732 5733 5733 5734 5734 5734 5735 5736 5738 5738 5739 5741 5742 5742 5743 5744 5746 5747 5746 5747 5749 5750 5751 5754 5755 5756 5756 5755 5756 5761 5764 5765 5768 5771 5772 5771 5774 5778 5779 5780 5785 5788 5787 5787 5788 5792 5797 5801 5805 5809 5813 5816 5818 5818 5820 5823 5826 5826 5829 5834 5839 5842 5844 5843 5844 5846 5848 5851 5854 5859 5866 5868 5868 5866 5863 5866 5873 5876
5733 5731 5730 5729 5728 5728 5728 5728 5728 5729 5730 5731 5731 5732 5732 5732 5733 5734 5736 5736 5737 5739 5739 5739 5739 5740 5743 5747 5745 5743 5745 5747 5748 5750 5752 5751 5751 5752 5754 5757 5759 5762 5764 5767 5768 5767 5770 5775 5777 5777 5781 5782 5781 5782 5784 5787 5790 5795 5800 5806 5810 5812 5814 5815 5816 5818 5821 5823 5826 5831 5835 5840 5844 5846 5845 5844 5843 5846 5851 5854 5860 5864 5864 5863 5864 5865 5869 5872
5732 5730 5729 5728 5727 5727 5726 5726 5727 5728 5728 5729 5730 5730 5731 5731 5732 5732 5733 5734 5735 5736 5736 5737 5737 5738 5740 5742 5741 5739 5741 5745 5746 5747 5748 5747 5747 5748 5750 5752 5755 5758 5760 5763 5764 5764 5766 5769 5771 5774 5776 5776 5775 5777 5780 5784 5788 5793 5797 5800 5802 5805 5808 5811 5812 5814 5817 5820 5824 5828 5832 5835 5841 5845 5848 5846 5842 5843 5848 5850 5853 5858 5857 5861 5867 5866 5864 5867
5731 5730 5729 5728 5727 5726 5726 5726 5726 5727 5727 5728 5729 5729 5729 5730 5730 5731 5731 5732 5733 5733 5734 5735 5735 5735 5737 5738 5738 5738 5738 5741 5742 5743 5743 5744 5743 5743 5745 5749 5751 5753 5756 5759 5760 5760 5761 5761 5765 5770 5771 5770 5772 5775 5777 5782 5787 5793 5796 5797 5799 5800 5803 5806 5809 5811 5813 5816 5821 5825 5829 5833 5838 5843 5847 5848 5844 5841 5842 5844 5847 5851 5852 5857 5865 5866 5863 5864
5731 5730 5729 5727 5727 5726 5726 5726 5726 5727 5727 5727 5728 5728 5728 5729 5729 5729 5730 5730 5731 5731 5732 5734 5733 5733 5734 5736 5736 5735 5735 5736 5739 5740 5741 5741 5740 5739 5741 5745 5747 5748 5751 5754 5755 5753 5752 5753 5758 5765 5766 5767 5771 5773 5775 5778 5782 5788 5791 5793 5796 5799 5802 5804 5806 5809 5811 5812 5816 5821 5825 5831 5838 5841 5843 5845 5846 5842 5839 5839 5842 5846 5850 5854 5860 5863 5862 5863
5730 5729 5728 5728 5727 5726 5726 5726 5727 5727 5727 5727 5727 5727 5727 5728 5728 5728 5728 5728 5729 5730 5730 5730 5730 5730 5732 5732 5732 5732 5733 5733 5735 5736 5738 5738 5736 5735 5737 5739 5741 5743 5745 5747 5747 5745 5747 5751 5756 5760 5762 5763 5765 5768 5769 5771 5773 5777 5782 5788 5794 5797 5800 5803 5805 5809 5812 5811 5813 5817 5820 5827 5835 5838 5838 5841 5844 5845 5842 5838 5838 5842 5847 5851 5855 5858 5860 5861
5730 5729 5729 5728 5727 5726 5726 5726 5726 5727 5727 5727 5727 5727 5726 5726 5726 5727 5727 5727 5727 5728 5728 5727 5727 5728 5729 5729 5729 5729 5729 5729 5729 5730 5731 5731 5731 5732 5732 5731 5734 5736 5737 5739 5739 5741 5747 5750 5750 5753 5755 5757 5761 5764 5766 5767 5770 5773 5776 5781 5787 5790 5793 5796 5798 5803 5806 5808 5812 5814 5814 5821 5830 5833 5834 5836 5839 5843 5844 5840 5837 5839 5843 5846 5850 5853 5856 5858
5730 5729 5728 5728 5727 5726 5726 5726 5726 5726 5727 5726 5726 5726 5725 5725 5725 5725 5725 5724 5724 5725 5725 5725 5725 5725 5726 5726 5726 5726 5726 5726 5725 5725 5725 5724 5726 5728 5726 5725 5728 5729 5727 5730 5734 5739 5744 5743 5741 5745 5748 5750 5756 5761 5762 5765 5767 5769 5771 5776 5781 5785 5788 5789 5791 5794 5796 5801 5808 5812 5812 5818 5826 5830 5831 5834 5835 5838 5841 5840 5836 5838 5841 5843 5846 5849 5851 5854
5730 5729 5728 5728 5728 5727 5726 5726 5726 5726 5725 5725 5725 5724 5724 5723 5723 5723 5722 5722 5722 5722 5722 5722 5722 5722 5722 5722 5722 5722 5722 5722 5720 5720 5720 5719 5719 5721 5720 5720 5723 5722 5720 5723 5727 5732 5735 5733 5733 5737 5740 5744 5751 5754 5754 5756 5758 5759 5762 5768 5774 5777 5780 5783 5786 5790 5793 5796 5800 5805 5810 5816 5822 5826 5828 5831 5833 5834 5837 5838 5836 5837 5840 5841 5842 5844 5847 5850
5730 5729 5728 5728 5728 5727 5727 5726 5725 5725 5724 5724 5723 5722 5722 5721 5721 5721 5720 5720 5720 5720 5719 5719 5719 5718 5718 5718 5718 5717 5716 5716 5715 5714 5714 5713 5713 5714 5714 5715 5717 5715 5714 5716 5718 5720 5722 5723 5726 5730 5732 5737 5743 5744 5745 5746 5748 5751 5755 5759 5762 5765 5769 5773 5777 5782 5788 5790 5792 5798 5805 5812 5817 5819 5820 5823 5826 5829 5833 5835 5834 5833 5835 5836 5836 5838 5844 5848
5730 5729 5729 5728 5728 5728 5727 5726 5725 5724 5723 5723 5722 5721 5720 5720 5719 5719 5718 5718 5717 5717 5716 5716 5715 5714 5714 5713 5713 5712 5711 5710 5709 5708 5708 5707 5707 5707 5707 5708 5708 5706 5707 5709 5709 5710 5711 5713 5717 5721 5724 5729 5734 5737 5740 5741 5742 5746 5749 5752 5755 5759 5763 5767 5769 5772 5776 5779 5784 5792 5798 5805 5811 5812 5811 5815 5818 5821 5824 5824 5824 5825 5826 5828 5831 5834 5840 5846
5730 5729 5729 5728 5728 5727 5726 5726 5724 5723 5722 5721 5720 5720 5718 5718 5717 5716 5716 5715 5715 5714 5713 5712 5712 5710 5710 5709 5708 5707 5706 5705 5704 5703 5702 5702 5701 5701 5700 5700 5700 5699 5700 5701 5700 5701 5701 5703 5708 5711 5713 5719 5725 5729 5734 5734 5735 5739 5743 5747 5751 5755 5761 5764 5765 5768 5769 5771 5779 5787 5791 5797 5804 5805 5805 5809 5809 5810 5813 5811 5813 5819 5822 5826 5831 5832 5835 5839
5730 5730 5729 5728 5728 5727 5726 5725 5724 5722 5721 5720 5719 5718 5717 5716 5715 5714 5713 5712 5711 5711 5710 5708 5708 5706 5705 5704 5704 5703 5701 5701 5700 5699 5698 5698 5698 5697 5696 5695 5695 5695 5694 5695 5695 5693 5692 5695 5700 5702 5703 5709 5714 5719 5724 5726 5727 5732 5736 5739 5743 5747 5752 5756 5758 5762 5765 5769 5777 5784 5786 5790 5794 5795 5799 5802 5801 5803 5805 5805 5809 5816 5819 5823 5828 5829 5831 5833
5730 5730 5729 5728 5727 5726 5725 5724 5723 5721 5720 5719 5718 5717 5715 5714 5713 5712 5710 5709 5708 5707 5706 5705 5704 5702 5701 5700 5699 5699 5698 5697 5697 5696 5696 5695 5695 5694 5693 5692 5691 5691 5690 5690 5690 5688 5688 5691 5694 5694 5695 5699 5704 5709 5715 5718 5719 5722 5727 5731 5736 5741 5745 5749 5753 5758 5762 5768 5774 5779 5781 5784 5785 5787 5791 5795 5795 5799 5801 5803 5809 5815 5817 5820 5823 5825 5828 5830
5730 5730 5729 5728 5727 5726 5724 5723 5722 5720 5719 5718 5716 5715 5713 5712 5711 5709 5708 5707 5705 5704 5703 5701 5700 5699 5698 5697 5696 5696 5696 5695 5695 5694 5693 5692 5691 5690 5689 5688 5688 5687 5686 5686 5686 5685 5685 5688 5689 5688 5688 5692 5697 5702 5707 5711 5712 5714 5720 5726 5731 5737 5740 5745 5751 5756 5761 5767 5772 5774 5777 5779 5778 5780 5784 5786 5789 5793 5796 5801 5807 5811 5814 5817 5819 5821 5823 5826
5730 5730 5729 5728 5727 5725 5724 5723 5721 5719 5718 5716 5714 5713 5712 5710 5708 5707 5705 5704 5702 5701 5700 5699 5697 5696 5695 5694 5694 5694 5694 5693 5692 5691 5690 5689 5688 5687 5686 5685 5684 5683 5682 5682 5682 5683 5683 5684 5685 5685 5684 5687 5692 5695 5698 5702 5702 5705 5714 5722 5727 5732 5735 5739 5745 5751 5756 5761 5764 5768 5771 5770 5770 5774 5778 5779 5782 5786 5790 5795 5800 5805 5809 5812 5814 5816 5818 5820